Starlink 11722

operational
NORAD ID: 64128 Int'l Des: 2025-111 Owner: SPXS Country: US Constellation: starlink
LEOCIRCULAR

About Starlink 11722

Description loading...

Live Position

Loading 3D Globe...

Upcoming Passes

Altitude History

Altitude vs Time

uPlot chart will show altitude changes over time

Two-Line Element Set

1 64128U 25111F 25306.48487634 .00228279 00000-0 17243-2 0 9990
2 64128 43.0004 20.5495 0001463 252.6562 107.4145 15.70975248 26582
Epoch: Nov 2, 2025 • Age: 36 hours

Current Status

Altitude 365.2 km
Velocity 7.69 km/s
Sub-Earth Point -39.73°S, 93.82°W
Launch Date May 24, 2025
Age 0.4 years
Type internet

Technical Details

Classification Payload
Mass 960.00 kg
Dry Mass 910.00 kg
Total Mass 960.00 kg
Length 0.30 m
Diameter 4.10 m
Span 29.00 m
Shape Box + pan
Manufacturer SPXS
Bus Type Starlink V2MD
Phase Status In Orbit
Owner/State SPXS/US

Large Constellations

Loading constellations...